User: anonymous   Login
Location: Unspecified
(0.0000°N, 0.0000°E)
Time: 02:59:52
(UTC+00:00)
Language:

USA 276 - Orbit

View from above orbital plane
View from above orbital plane
View from above satellite
View from above satellite

Ground track
Ground track

The orbit data is extracted from the following two-line orbital elements,

1 42689U 17022A   17257.10066463 0.00009000  00000-0  11883-3 0    05
2 42689  50.0050 298.8999 0015196 204.7073 155.2925 15.57522975    07
Epoch (UTC): 14 September 2017 02:24:57
Eccentricity: 0.0015196
inclination: 50.0050°
perigee height: 384 km
apogee height: 405 km
right ascension of ascending node: 298.8999°
argument of perigee: 204.7073°
revolutions per day: 15.57522975
mean anomaly at epoch: 155.2925°
orbit number at epoch: 0

The dashed part of the orbit path shows where the satellite is in the earth's shadow,  

DLR